When you browse on this site, cookies collect data to enhance your experience and personalize the content and advertising you see.
Visit our Privacy Policy to learn more. By continuing to use the site, you agree to this use of cookies and data.

Hourly Weather Calnali

Today, 10 August, Monday

Time Temperature Precipitation Wind Pressure Humidity
00:00 +17°C° 0 mm 0 mps 658 mmHg 95%
01:00 +16°C° 0 mm 0 mps 657 mmHg 95%
02:00 +16°C° 0 mm 0 mps 656 mmHg 95%
03:00 +16°C° 0 mm 0 mps 656 mmHg 95%
04:00 +16°C° 0 mm 0 mps 656 mmHg 96%
05:00 +16°C° 0 mm 0 mps 656 mmHg 96%
06:00 +17°C° 0 mm 0 mps 657 mmHg 92%
07:00 +18°C° 0 mm 0 mps 657 mmHg 88%
08:00 +20°C° 0 mm 0 mps 658 mmHg 84%
09:00 +22°C° 0 mm 1 mps 658 mmHg 81%
10:00 +23°C° 0 mm 1 mps 658 mmHg 79%
11:00 +24°C° 0 mm 2 mps 658 mmHg 76%
12:00 +23°C° 0.4 mm 2 mps 657 mmHg 80%
13:00 +23°C° 0.4 mm 2 mps 657 mmHg 83%
14:00 +23°C° 0.4 mm 2 mps 656 mmHg 86%
15:00 +21°C° 1.6 mm 2 mps 656 mmHg 89%
16:00 +22°C° 1.6 mm 1 mps 656 mmHg 91%
17:00 +21°C° 1.6 mm 1 mps 655 mmHg 94%
18:00 +21°C° 0.7 mm 1 mps 656 mmHg 95%
19:00 +20°C° 0.7 mm 1 mps 656 mmHg 95%
20:00 +17°C° 0.7 mm 0 mps 656 mmHg 96%
21:00 +19°C° 0.2 mm 1 mps 656 mmHg 96%
22:00 +19°C° 0.2 mm 1 mps 656 mmHg 96%
23:00 +19°C° 0.2 mm 1 mps 656 mmHg 96%

Tomorrow, 11 August, Tuesday

Time Temperature Precipitation Wind Pressure Humidity
00:00 +19°C° 0 mm 1 mps 656 mmHg 95%
01:00 +18°C° 0 mm 1 mps 655 mmHg 95%
02:00 +16°C° 0 mm 0 mps 655 mmHg 94%
03:00 +18°C° 0 mm 1 mps 655 mmHg 94%
04:00 +18°C° 0 mm 1 mps 655 mmHg 94%
05:00 +18°C° 0 mm 1 mps 655 mmHg 94%
06:00 +17°C° 0 mm 0 mps 655 mmHg 90%
07:00 +19°C° 0 mm 0 mps 656 mmHg 86%
08:00 +20°C° 0 mm 0 mps 657 mmHg 82%
09:00 +23°C° 0 mm 1 mps 657 mmHg 77%
10:00 +24°C° 0 mm 1 mps 657 mmHg 73%
11:00 +25°C° 0 mm 2 mps 657 mmHg 69%
12:00 +24°C° 0.4 mm 2 mps 656 mmHg 73%
13:00 +24°C° 0.4 mm 2 mps 656 mmHg 76%
14:00 +24°C° 0.4 mm 2 mps 655 mmHg 79%
15:00 +23°C° 1.4 mm 2 mps 655 mmHg 83%
16:00 +22°C° 1.4 mm 1 mps 655 mmHg 87%
17:00 +22°C° 1.4 mm 1 mps 654 mmHg 91%
18:00 +21°C° 0.3 mm 1 mps 655 mmHg 93%
19:00 +20°C° 0.3 mm 1 mps 655 mmHg 94%
20:00 +17°C° 0.3 mm 0 mps 655 mmHg 95%
21:00 +17°C° 0 mm 0 mps 655 mmHg 95%
22:00 +19°C° 0 mm 1 mps 655 mmHg 95%
23:00 +19°C° 0 mm 1 mps 655 mmHg 94%

Day after tomorrow, 12 August, Wednesday

Time Temperature Precipitation Wind Pressure Humidity
00:00 +18°C° 0 mm 1 mps 655 mmHg 94%
01:00 +18°C° 0 mm 1 mps 655 mmHg 94%
02:00 +18°C° 0 mm 1 mps 654 mmHg 94%
03:00 +18°C° 0 mm 1 mps 655 mmHg 94%
04:00 +18°C° 0 mm 1 mps 655 mmHg 94%
05:00 +18°C° 0 mm 1 mps 655 mmHg 94%
06:00 +19°C° 0 mm 1 mps 655 mmHg 89%
07:00 +21°C° 0 mm 1 mps 656 mmHg 84%
08:00 +20°C° 0 mm 0 mps 657 mmHg 80%
09:00 +23°C° 0 mm 1 mps 657 mmHg 76%
10:00 +24°C° 0 mm 2 mps 657 mmHg 72%
11:00 +25°C° 0 mm 2 mps 657 mmHg 68%
12:00 +25°C° 0.2 mm 2 mps 656 mmHg 70%
13:00 +25°C° 0.2 mm 2 mps 656 mmHg 71%
14:00 +25°C° 0.2 mm 2 mps 655 mmHg 73%
15:00 +24°C° 1.2 mm 2 mps 655 mmHg 79%
16:00 +23°C° 1.2 mm 2 mps 655 mmHg 85%
17:00 +22°C° 1.2 mm 1 mps 655 mmHg 90%
18:00 +21°C° 0.8 mm 1 mps 655 mmHg 92%
19:00 +20°C° 0.8 mm 1 mps 655 mmHg 94%
20:00 +19°C° 0.8 mm 1 mps 656 mmHg 95%
21:00 +19°C° 0.3 mm 1 mps 656 mmHg 94%
22:00 +19°C° 0.3 mm 1 mps 656 mmHg 94%
23:00 +19°C° 0.3 mm 1 mps 656 mmHg 93%

13 August, Thursday

Time Temperature Precipitation Wind Pressure Humidity
00:00 +19°C° 0 mm 1 mps 656 mmHg 93%
01:00 +19°C° 0 mm 1 mps 655 mmHg 93%
02:00 +19°C° 0 mm 1 mps 655 mmHg 93%
03:00 +18°C° 0 mm 1 mps 655 mmHg 93%
04:00 +18°C° 0 mm 1 mps 655 mmHg 93%
05:00 +18°C° 0 mm 1 mps 655 mmHg 92%
06:00 +17°C° 0 mm 0 mps 656 mmHg 89%
07:00 +19°C° 0 mm 0 mps 656 mmHg 85%
08:00 +20°C° 0 mm 0 mps 657 mmHg 81%
09:00 +23°C° 0.3 mm 1 mps 657 mmHg 80%
10:00 +23°C° 0.3 mm 1 mps 657 mmHg 79%
11:00 +24°C° 0.3 mm 2 mps 656 mmHg 78%
12:00 +24°C° 1.3 mm 2 mps 656 mmHg 81%
13:00 +23°C° 1.3 mm 2 mps 655 mmHg 83%
14:00 +23°C° 1.3 mm 1 mps 655 mmHg 85%
15:00 +22°C° 0.8 mm 1 mps 655 mmHg 87%
16:00 +22°C° 0.8 mm 1 mps 655 mmHg 89%
17:00 +21°C° 0.8 mm 1 mps 655 mmHg 91%
18:00 +21°C° 0.2 mm 1 mps 655 mmHg 92%
19:00 +20°C° 0.2 mm 1 mps 655 mmHg 93%
20:00 +19°C° 0.2 mm 1 mps 656 mmHg 93%
21:00 +19°C° 0 mm 1 mps 656 mmHg 92%
22:00 +19°C° 0 mm 1 mps 656 mmHg 91%
23:00 +17°C° 0 mm 2 mps 655 mmHg 90%

14 August, Friday

Time Temperature Precipitation Wind Pressure Humidity
00:00 +18°C° 0 mm 1 mps 655 mmHg 90%
01:00 +18°C° 0 mm 1 mps 654 mmHg 90%
02:00 +16°C° 0 mm 1 mps 654 mmHg 89%
03:00 +16°C° 0 mm 1 mps 654 mmHg 89%
04:00 +16°C° 0 mm 1 mps 654 mmHg 89%
05:00 +16°C° 0 mm 1 mps 654 mmHg 89%
06:00 +19°C° 0 mm 1 mps 655 mmHg 83%
07:00 +19°C° 0 mm 0 mps 656 mmHg 76%
08:00 +21°C° 0 mm 0 mps 657 mmHg 70%
09:00 +24°C° 0 mm 1 mps 656 mmHg 67%
10:00 +25°C° 0 mm 2 mps 656 mmHg 65%
11:00 +25°C° 0 mm 2 mps 656 mmHg 62%
12:00 +25°C° 0.1 mm 2 mps 656 mmHg 64%
13:00 +25°C° 0.1 mm 2 mps 655 mmHg 65%
14:00 +25°C° 0.1 mm 2 mps 655 mmHg 67%
15:00 +24°C° 0.6 mm 2 mps 655 mmHg 73%
16:00 +23°C° 0.6 mm 2 mps 655 mmHg 79%
17:00 +22°C° 0.6 mm 1 mps 654 mmHg 86%
18:00 +21°C° 0.2 mm 1 mps 655 mmHg 88%
19:00 +20°C° 0.2 mm 1 mps 655 mmHg 91%
20:00 +19°C° 0.2 mm 1 mps 655 mmHg 93%
21:00 +19°C° 0 mm 1 mps 655 mmHg 92%
22:00 +19°C° 0 mm 1 mps 655 mmHg 91%
23:00 +18°C° 0 mm 1 mps 655 mmHg 89%

15 August, Saturday

Time Temperature Precipitation Wind Pressure Humidity
00:00 +18°C° 0 mm 1 mps 655 mmHg 89%
01:00 +18°C° 0 mm 1 mps 654 mmHg 89%
02:00 +18°C° 0 mm 1 mps 654 mmHg 89%
03:00 +18°C° 0 mm 1 mps 654 mmHg 89%
04:00 +18°C° 0 mm 1 mps 654 mmHg 89%
05:00 +16°C° 0 mm 1 mps 654 mmHg 89%
06:00 +19°C° 0 mm 1 mps 655 mmHg 84%
07:00 +19°C° 0 mm 0 mps 655 mmHg 78%
08:00 +20°C° 0 mm 0 mps 656 mmHg 73%
09:00 +23°C° 0 mm 1 mps 656 mmHg 70%
10:00 +24°C° 0 mm 2 mps 656 mmHg 67%
11:00 +25°C° 0 mm 2 mps 656 mmHg 65%
12:00 +25°C° 0 mm 2 mps 656 mmHg 66%
13:00 +25°C° 0 mm 2 mps 655 mmHg 66%
14:00 +25°C° 0 mm 2 mps 655 mmHg 67%
15:00 +24°C° 0.1 mm 2 mps 655 mmHg 72%
16:00 +24°C° 0.1 mm 2 mps 655 mmHg 77%
17:00 +23°C° 0.1 mm 2 mps 655 mmHg 82%
18:00 +22°C° 0.1 mm 1 mps 655 mmHg 86%
19:00 +20°C° 0.1 mm 1 mps 655 mmHg 90%
20:00 +19°C° 0.1 mm 1 mps 655 mmHg 95%
21:00 +19°C° 0 mm 1 mps 655 mmHg 94%
22:00 +19°C° 0 mm 1 mps 655 mmHg 94%
23:00 +19°C° 0 mm 1 mps 655 mmHg 93%
Show more